USA 271

Last updated on Aug. 8, 2020, 5:32 a.m. UTC

1 41745U 16052B   20220.52933324 -.00000334  00000-0  00000+0 0  9992
2 41745   0.3426  97.8030 0001037 158.1870  25.3903  1.00201719  6487
UTC
Height (km)
Latitude
Longitude
Inclination
Orbital Period
UTC large
Height (km)
Speed (km/s)
/
Latitude / Longitude
Inclination (degrees)
Orbital Period (minutes)
Azimuth
Elevation
Range (km)
Doppler Factor
iOS Compass Heading
iOS Angle

Next 30 passes for location: Hong Kong

Rise time Rise Azimuth (degrees) Set time Set Azimuth (degrees) Duration Max altitude (degrees)

No matching passes for this satellites